This is the latest recevied weather packets stored in our database for station/object KI2K. If no packets are shown the sender has not sent any weather packets the latest 1 day(s).
| Time | Temp. | Humidity | Pressure | Rain* | Wind** | Luminosity | Snow |
|---|---|---|---|---|---|---|---|
| 1777990869 | 14.44° C | 99% | 1007.6 hPa | 0 mm | 0 m/s | 78 W/m² | - |
| 1777990566 | 13.89° C | 99% | 1007.7 hPa | 0 mm | 0 m/s | 60 W/m² | - |
| 1777990262 | 13.89° C | 99% | 1007.7 hPa | 0 mm | 0.45 m/s, 283° | 49 W/m² | - |
| 1777989959 | 13.89° C | 99% | 1007.6 hPa | 0 mm | 0.45 m/s, 285° | 48 W/m² | - |
| 1777989656 | 13.89° C | 99% | 1007.4 hPa | 0 mm | 0.45 m/s, 292° | 53 W/m² | - |
| 1777989352 | 13.89° C | 99% | 1007.5 hPa | 0 mm | 0.89 m/s, 278° | 49 W/m² | - |
| 1777989049 | 13.89° C | 99% | 1007.6 hPa | 0 mm | 0 m/s | 52 W/m² | - |
| 1777988744 | 13.89° C | 99% | 1007.6 hPa | 0 mm | 0.45 m/s, 277° | 72 W/m² | - |
| 1777988443 | 13.89° C | 99% | 1007.6 hPa | 0 mm | 0.45 m/s, 267° | 54 W/m² | - |
| 1777988139 | 13.89° C | 99% | 1007.3 hPa | 0 mm | 0.45 m/s, 278° | 87 W/m² | - |
| 1777987835 | 13.89° C | 99% | 1007.5 hPa | 0 mm | 0.45 m/s, 278° | 63 W/m² | - |
| 1777987532 | 13.89° C | 99% | 1007.5 hPa | 0 mm | 0 m/s | 32 W/m² | - |
| 1777987230 | 13.89° C | 99% | 1007.6 hPa | 0 mm | 0 m/s | 46 W/m² | - |
| 1777986926 | 13.89° C | 99% | 1007.7 hPa | 0 mm | 0.89 m/s, 271° | 54 W/m² | - |
| 1777986624 | 13.89° C | 99% | 1007.4 hPa | 0 mm | 0 m/s | 90 W/m² | - |
| 1777986321 | 13.89° C | 99% | 1007.3 hPa | 0 mm | 0.45 m/s, 288° | 76 W/m² | - |
| 1777986020 | 13.89° C | 99% | 1007.5 hPa | 0 mm | 0 m/s | 103 W/m² | - |
| 1777985716 | 13.89° C | 99% | 1007.4 hPa | 0 mm | 0 m/s | 156 W/m² | - |
| 1777985413 | 13.89° C | 99% | 1007.4 hPa | 0 mm | 0 m/s | 140 W/m² | - |
| 1777985110 | 13.89° C | 99% | 1007.4 hPa | 0 mm | 0.45 m/s, 280° | 118 W/m² | - |
| 1777984806 | 13.89° C | 99% | 1007.1 hPa | 0 mm | 0 m/s | 113 W/m² | - |
| 1777984503 | 13.89° C | 99% | 1007.3 hPa | 0 mm | 0.89 m/s, 213° | 150 W/m² | - |
| 1777984198 | 13.89° C | 99% | 1007 hPa | 0 mm | 0.45 m/s, 268° | 160 W/m² | - |
| 1777983896 | 13.89° C | 99% | 1007 hPa | 0 mm | 0.45 m/s, 277° | 111 W/m² | - |
| 1777983593 | 13.33° C | 99% | 1006.9 hPa | 0 mm | 0 m/s | 89 W/m² | - |
* Rain latest hour (hover to see other rain measurements)
** Current wind speed in m/s (hover to see current wind gust speed)